Location: Newark
(13.6797°N, 8.5297°E)
Time: 15:40:26
(UTC+00:00)

Altair - Pass Details

Date: 04 February 2020
Orbit: 1502 x 1682 km, 47.2° (Epoch: 24 February)

Event Time Altitude Azimuth Distance (km) Brightness Sun altitude
Rises 12:00:47 0° 327° (NNW) 4,928 9.9 59.6°
Reaches altitude 10° 12:04:16 10° 335° (NNW) 3,934 9.5 59.4°
Maximum altitude 12:13:39 42° 43° (NE) 2,228 8.6 58.9°
Drops below altitude 10° 12:22:46 10° 111° (ESE) 3,841 9.7 58.2°
Sets 12:26:05 0° 118° (ESE) 4,801 10.1 57.9°
